Hourly Data Report for November 04, 2019

EUREKA CLIMATE
NUNAVUT
Current Station Operator: ECCC - MSC

79°59'21.000" N
85°56'02.000" W
10.00 m
2401199
71613
NEK

Download Data

Hourly Data (November 2019)
Hourly Data Report for November 4, 2019
TIME
LST
Temp Definition
°C
Dew Point Definition
°C
Rel Hum Definition
%
Precip. Amount Definition
mm

Wind Dir Definition
10's deg

Wind Spd Definition
km/h
Visibility Definition
km
Stn Press Definition
kPa
Hmdx Definition


Wind Chill Definition


Weather Definition


00:00 -25.1 -27.5 81 0.2 11 6   101.45   -31 LegendNANA
01:00 -25.5 -28.0 79 0.0 6 4   101.47   -30 LegendNANA
02:00 -24.8 -27.2 80 0.0 6 5   101.49   -30 LegendNANA
03:00 -24.8 -27.3 79 0.0 6 4   101.50   -29 LegendNANA
04:00 -24.5 -27.0 80 0.0 9 5   101.52   -29 LegendNANA
05:00 -24.8 -27.3 80 0.0 8 6   101.54   -31 LegendNANA
06:00 -24.7 -27.1 80 0.0 11 3   101.55   -28 LegendNANA
07:00 -25.8 -28.5 78 0.0 3 8   101.56   -33 LegendNANA
08:00 -24.4 -26.8 80 0.0 6 4   101.55   -28 LegendNANA
09:00 -24.1 -26.6 80 0.0 10 3   101.53   -27 LegendNANA
10:00 -23.8 -26.3 80 0.0 8 4   101.54   -28 LegendNANA
11:00 -24.6 -27.1 79 0.0 2 6   101.55   -30 LegendNANA
12:00 -25.6 -28.2 79 0.0 36 7   101.55   -32 LegendNANA
13:00 -25.3 -27.6 81 0.0 1 2   101.56   -27 LegendNANA
14:00 -26.2 -28.6 80 0.0 2 8   101.55   -34 LegendNANA
15:00 -25.4 -27.7 81 0.0 10 5   101.56   -30 LegendNANA
16:00 -26.3 -28.6 81 0.0 9 2   101.56   -28 LegendNANA
17:00 -26.5 -28.8 81 0.0 5 3   101.54   -30 LegendNANA
18:00 -26.0 -28.3 81 0.0 10 5   101.54   -31 LegendNANA
19:00 -26.3 -28.7 80 0.0 10 8   101.55   -34 LegendNANA
20:00 -26.6 -28.9 81 0.0 2 11   101.53   -36 LegendNANA
21:00 -25.6 -28.0 80 0.0 3 7   101.53   -32 LegendNANA
22:00 -24.9 -27.1 82 0.0 4 6   101.51   -31 LegendNANA
23:00 -24.3 -26.7 81 0.0 9 2   101.50   -26 LegendNANA

Notes on Data Quality.

Legend

  • E = Estimated
  • M = Missing
  • NA = Not Available*
  • [empty] = Indicates an unobserved value
Date modified: